******** Week 361 almanac for PRN-1 ******** ID: 1 Health: 0 Eccentricity: 0.001609802246 Time of Applicability(s): 319488 Orbital Inclination(rad): 0.9581891149 Rate of Right Ascen(r/s): -8.023191341e-09 SQRT(A) (m 1/2): 5153.574219 Right Ascen at Week(rad): 3.01075825 Argument of Perigee(rad): 0.1029463645 Mean Anom(rad): 0.8431478965 Af0(s): 0.000252480896 Af1(s/s): -7.275958e-12 week: 361 ******** Week 361 almanac for PRN-2 ******** ID: 2 Health: 0 Eccentricity: 0.01688909531 Time of Applicability(s): 319488 Orbital Inclination(rad): 0.9634022528 Rate of Right Ascen(r/s): -7.886042771e-09 SQRT(A) (m 1/2): 5153.54248 Right Ascen at Week(rad): 2.848326687 Argument of Perigee(rad): -0.8066926334 Mean Anom(rad): 2.320044826 Af0(s): 4.371311035e-05 Af1(s/s): 7.275958e-12 week: 361 ******** Week 361 almanac for PRN-3 ******** ID: 3 Health: 0 Eccentricity: 0.006523132324 Time of Applicability(s): 319488 Orbital Inclination(rad): 0.9934287283 Rate of Right Ascen(r/s): -7.668890868e-09 SQRT(A) (m 1/2): 5153.581055 Right Ascen at Week(rad): -2.28539581 Argument of Perigee(rad): 1.203299322 Mean Anom(rad): -1.272335947 Af0(s): 0.0004295943603 Af1(s/s): -1.091394e-11 week: 361 ******** Week 361 almanac for PRN-4 ******** ID: 4 Health: 0 Eccentricity: 0.003735542297 Time of Applicability(s): 319488 Orbital Inclination(rad): 0.9704849297 Rate of Right Ascen(r/s): -7.703178011e-09 SQRT(A) (m 1/2): 5153.682617 Right Ascen at Week(rad): -1.214783954 Argument of Perigee(rad): -2.874865379 Mean Anom(rad): 1.701289556 Af0(s): 3.843739014e-05 Af1(s/s): 3.637979e-12 week: 361 ******** Week 361 almanac for PRN-5 ******** ID: 5 Health: 0 Eccentricity: 0.005414009094 Time of Applicability(s): 319488 Orbital Inclination(rad): 0.9799944121 Rate of Right Ascen(r/s): -7.817468486e-09 SQRT(A) (m 1/2): 5153.665039 Right Ascen at Week(rad): -2.345251396 Argument of Perigee(rad): 1.417738675 Mean Anom(rad): 2.369240818 Af0(s): -0.0001816355103 Af1(s/s): 0 week: 361 ******** Week 361 almanac for PRN-6 ******** ID: 6 Health: 0 Eccentricity: 0.003848552704 Time of Applicability(s): 319488 Orbital Inclination(rad): 0.9870531206 Rate of Right Ascen(r/s): -7.726036106e-09 SQRT(A) (m 1/2): 5153.598145 Right Ascen at Week(rad): 2.96154915 Argument of Perigee(rad): -0.5580237115 Mean Anom(rad): 0.03925020912 Af0(s): -0.0004838589111 Af1(s/s): 0 week: 361 ******** Week 361 almanac for PRN-7 ******** ID: 7 Health: 0 Eccentricity: 0.02053403854 Time of Applicability(s): 319488 Orbital Inclination(rad): 0.9512802093 Rate of Right Ascen(r/s): -7.828897533e-09 SQRT(A) (m 1/2): 5153.563965 Right Ascen at Week(rad): -0.2061264214 Argument of Perigee(rad): -1.98947983 Mean Anom(rad): -0.8178214842 Af0(s): -0.0001258636108 Af1(s/s): -3.637979e-12 week: 361 ******** Week 361 almanac for PRN-8 ******** ID: 8 Health: 0 Eccentricity: 0.0115852356 Time of Applicability(s): 319488 Orbital Inclination(rad): 0.9431369284 Rate of Right Ascen(r/s): -8.000333246e-09 SQRT(A) (m 1/2): 5153.637695 Right Ascen at Week(rad): 1.840906526 Argument of Perigee(rad): 0.5260902462 Mean Anom(rad): 2.00689628 Af0(s): 0.0003790981811 Af1(s/s): -7.275958e-12 week: 361 ******** Week 361 almanac for PRN-9 ******** ID: 9 Health: 0 Eccentricity: 0.00334405899 Time of Applicability(s): 319488 Orbital Inclination(rad): 0.9646486122 Rate of Right Ascen(r/s): -7.783181343e-09 SQRT(A) (m 1/2): 5153.724609 Right Ascen at Week(rad): -1.279107783 Argument of Perigee(rad): 2.068133048 Mean Anom(rad): 2.596833608 Af0(s): 0.0006059541504 Af1(s/s): 0 week: 361 ******** Week 361 almanac for PRN-10 ******** ID: 10 Health: 0 Eccentricity: 0.01093816757 Time of Applicability(s): 319488 Orbital Inclination(rad): 0.9929673356 Rate of Right Ascen(r/s): -7.668890868e-09 SQRT(A) (m 1/2): 5153.608398 Right Ascen at Week(rad): -2.287905007 Argument of Perigee(rad): -2.25589327 Mean Anom(rad): -2.26304186 Af0(s): -0.0004665244019 Af1(s/s): 0 week: 361 ******** Week 361 almanac for PRN-11 ******** ID: 11 Health: 0 Eccentricity: 0.002200603485 Time of Applicability(s): 319488 Orbital Inclination(rad): 0.9639175744 Rate of Right Ascen(r/s): -7.943188008e-09 SQRT(A) (m 1/2): 5153.530762 Right Ascen at Week(rad): 2.980140053 Argument of Perigee(rad): -2.3052885 Mean Anom(rad): 1.138982234 Af0(s): -0.0003248336304 Af1(s/s): 1.455192e-11 week: 361 ******** Week 361 almanac for PRN-12 ******** ID: 12 Health: 0 Eccentricity: 0.00900888443 Time of Applicability(s): 319488 Orbital Inclination(rad): 0.9591238845 Rate of Right Ascen(r/s): -7.794610391e-09 SQRT(A) (m 1/2): 5153.714355 Right Ascen at Week(rad): 0.9114250219 Argument of Perigee(rad): 1.562305879 Mean Anom(rad): -1.48579971 Af0(s): -0.0004800905395 Af1(s/s): 0 week: 361 ******** Week 361 almanac for PRN-13 ******** ID: 13 Health: 0 Eccentricity: 0.01001024246 Time of Applicability(s): 319488 Orbital Inclination(rad): 0.9761354917 Rate of Right Ascen(r/s): -7.646032773e-09 SQRT(A) (m 1/2): 5153.625488 Right Ascen at Week(rad): -1.103839992 Argument of Perigee(rad): 0.9956250626 Mean Anom(rad): 1.762991087 Af0(s): 0.0005403844849 Af1(s/s): 0 week: 361 ******** Week 361 almanac for PRN-14 ******** ID: 14 Health: 0 Eccentricity: 0.006761550903 Time of Applicability(s): 319488 Orbital Inclination(rad): 0.9424897803 Rate of Right Ascen(r/s): -7.954617056e-09 SQRT(A) (m 1/2): 5153.595215 Right Ascen at Week(rad): 0.8566428828 Argument of Perigee(rad): -2.746432687 Mean Anom(rad): -1.638098986 Af0(s): 0.0005840975952 Af1(s/s): 0 week: 361 ******** Week 361 almanac for PRN-15 ******** ID: 15 Health: 0 Eccentricity: 0.01660871506 Time of Applicability(s): 319488 Orbital Inclination(rad): 0.942525733 Rate of Right Ascen(r/s): -8.011762293e-09 SQRT(A) (m 1/2): 5153.646484 Right Ascen at Week(rad): -1.423417326 Argument of Perigee(rad): 1.503322145 Mean Anom(rad): 1.00971177 Af0(s): 0.0003105138184 Af1(s/s): 3.637979e-12 week: 361 ******** Week 361 almanac for PRN-16 ******** ID: 16 Health: 0 Eccentricity: 0.01504325867 Time of Applicability(s): 319488 Orbital Inclination(rad): 0.9582430439 Rate of Right Ascen(r/s): -7.794610391e-09 SQRT(A) (m 1/2): 5153.597656 Right Ascen at Week(rad): 0.9283860707 Argument of Perigee(rad): 0.9302878174 Mean Anom(rad): 3.037027296 Af0(s): 0.0001771134644 Af1(s/s): 7.275958e-12 week: 361 ******** Week 361 almanac for PRN-17 ******** ID: 17 Health: 0 Eccentricity: 0.0126543045 Time of Applicability(s): 319488 Orbital Inclination(rad): 0.9588422552 Rate of Right Ascen(r/s): -7.851755628e-09 SQRT(A) (m 1/2): 5153.547852 Right Ascen at Week(rad): 1.94578235 Argument of Perigee(rad): -1.11980635 Mean Anom(rad): 1.94199908 Af0(s): -6.707701416e-05 Af1(s/s): -1.091394e-11 week: 361 ******** Week 361 almanac for PRN-18 ******** ID: 18 Health: 0 Eccentricity: 0.005758285522 Time of Applicability(s): 319488 Orbital Inclination(rad): 0.9720009341 Rate of Right Ascen(r/s): -7.874613723e-09 SQRT(A) (m 1/2): 5153.59082 Right Ascen at Week(rad): 2.956392563 Argument of Perigee(rad): -2.866771907 Mean Anom(rad): -0.04186988578 Af0(s): -0.0003195579102 Af1(s/s): 1.091394e-11 week: 361 ******** Week 361 almanac for PRN-19 ******** ID: 19 Health: 0 Eccentricity: 0.01115703583 Time of Applicability(s): 319488 Orbital Inclination(rad): 0.9580273279 Rate of Right Ascen(r/s): -7.851755628e-09 SQRT(A) (m 1/2): 5153.67334 Right Ascen at Week(rad): 1.989680192 Argument of Perigee(rad): 2.935091726 Mean Anom(rad): -2.534926098 Af0(s): 0.000547921228 Af1(s/s): 0 week: 361 ******** Week 361 almanac for PRN-20 ******** ID: 20 Health: 255 Eccentricity: 0.002275943756 Time of Applicability(s): 319488 Orbital Inclination(rad): 0.9600466698 Rate of Right Ascen(r/s): -7.828897533e-09 SQRT(A) (m 1/2): 5153.706543 Right Ascen at Week(rad): -1.273536991 Argument of Perigee(rad): -2.000651001 Mean Anom(rad): -1.501138395 Af0(s): 3.617636719e-05 Af1(s/s): 2.182787e-11 week: 361 ******** Week 361 almanac for PRN-21 ******** ID: 21 Health: 0 Eccentricity: 0.0007576942444 Time of Applicability(s): 319488 Orbital Inclination(rad): 0.9628330021 Rate of Right Ascen(r/s): -7.977475151e-09 SQRT(A) (m 1/2): 5153.720703 Right Ascen at Week(rad): -2.279416056 Argument of Perigee(rad): -0.3088754207 Mean Anom(rad): -1.794744415 Af0(s): 0.0003218189331 Af1(s/s): 3.637979e-12 week: 361 ******** Week 361 almanac for PRN-22 ******** ID: 22 Health: 0 Eccentricity: 0.01207685471 Time of Applicability(s): 319488 Orbital Inclination(rad): 0.9576857775 Rate of Right Ascen(r/s): -7.794610391e-09 SQRT(A) (m 1/2): 5153.569824 Right Ascen at Week(rad): 0.9317401557 Argument of Perigee(rad): -0.993063809 Mean Anom(rad): 2.589589893 Af0(s): -2.788594971e-05 Af1(s/s): 3.637979e-12 week: 361 ******** Week 361 almanac for PRN-23 ******** ID: 23 Health: 0 Eccentricity: 0.006046295166 Time of Applicability(s): 319488 Orbital Inclination(rad): 0.9879639217 Rate of Right Ascen(r/s): -7.714607058e-09 SQRT(A) (m 1/2): 5153.662109 Right Ascen at Week(rad): -2.320031343 Argument of Perigee(rad): -2.739142534 Mean Anom(rad): -1.182175627 Af0(s): 0.0004921493286 Af1(s/s): 3.637979e-12 week: 361 ******** Week 361 almanac for PRN-24 ******** ID: 24 Health: 0 Eccentricity: 0.01791763306 Time of Applicability(s): 319488 Orbital Inclination(rad): 0.9352453163 Rate of Right Ascen(r/s): -8.034620388e-09 SQRT(A) (m 1/2): 5153.588867 Right Ascen at Week(rad): -0.314753683 Argument of Perigee(rad): 1.136628457 Mean Anom(rad): 0.1638835266 Af0(s): -6.858436279e-05 Af1(s/s): 1.818989e-11 week: 361 ******** Week 361 almanac for PRN-25 ******** ID: 25 Health: 0 Eccentricity: 0.01293373108 Time of Applicability(s): 319488 Orbital Inclination(rad): 0.9475411311 Rate of Right Ascen(r/s): -7.908900866e-09 SQRT(A) (m 1/2): 5153.663086 Right Ascen at Week(rad): 0.8174979101 Argument of Perigee(rad): 1.158016928 Mean Anom(rad): -1.616005692 Af0(s): 0.0003459365112 Af1(s/s): -3.637979e-12 week: 361 ******** Week 361 almanac for PRN-26 ******** ID: 26 Health: 0 Eccentricity: 0.01101398468 Time of Applicability(s): 319488 Orbital Inclination(rad): 0.9283603791 Rate of Right Ascen(r/s): -8.091765626e-09 SQRT(A) (m 1/2): 5153.660156 Right Ascen at Week(rad): 0.7427991128 Argument of Perigee(rad): 0.7104885189 Mean Anom(rad): -2.436670059 Af0(s): -0.0002675543823 Af1(s/s): -3.637979e-12 week: 361 ******** Week 361 almanac for PRN-27 ******** ID: 27 Health: 0 Eccentricity: 0.01436758041 Time of Applicability(s): 319488 Orbital Inclination(rad): 0.9522389473 Rate of Right Ascen(r/s): -7.920329913e-09 SQRT(A) (m 1/2): 5153.616699 Right Ascen at Week(rad): 1.873023874 Argument of Perigee(rad): 0.8833201419 Mean Anom(rad): 2.109007868 Af0(s): -5.200352783e-05 Af1(s/s): -1.091394e-11 week: 361 ******** Week 361 almanac for PRN-28 ******** ID: 28 Health: 0 Eccentricity: 0.0004229545593 Time of Applicability(s): 319488 Orbital Inclination(rad): 0.9622098224 Rate of Right Ascen(r/s): -7.726036106e-09 SQRT(A) (m 1/2): 5153.746094 Right Ascen at Week(rad): -0.2317644236 Argument of Perigee(rad): -0.04019509035 Mean Anom(rad): -0.4537339903 Af0(s): -0.0004582339844 Af1(s/s): 7.275958e-12 week: 361 ******** Week 361 almanac for PRN-29 ******** ID: 29 Health: 0 Eccentricity: 0.003385543823 Time of Applicability(s): 319488 Orbital Inclination(rad): 0.9615027531 Rate of Right Ascen(r/s): -7.806039438e-09 SQRT(A) (m 1/2): 5153.707031 Right Ascen at Week(rad): 1.962535922 Argument of Perigee(rad): 2.742356553 Mean Anom(rad): 1.968835505 Af0(s): -0.0002848888916 Af1(s/s): 7.275958e-12 week: 361 ******** Week 361 almanac for PRN-30 ******** ID: 30 Health: 0 Eccentricity: 0.008091926575 Time of Applicability(s): 319488 Orbital Inclination(rad): 0.9365396126 Rate of Right Ascen(r/s): -7.988904198e-09 SQRT(A) (m 1/2): 5153.695312 Right Ascen at Week(rad): -0.2152512852 Argument of Perigee(rad): -2.313672589 Mean Anom(rad): -0.9969923878 Af0(s): 0.0001175731934 Af1(s/s): 1.455192e-11 week: 361 ******** Week 361 almanac for PRN-31 ******** ID: 31 Health: 0 Eccentricity: 0.01085042953 Time of Applicability(s): 319488 Orbital Inclination(rad): 0.9550432559 Rate of Right Ascen(r/s): -7.794610391e-09 SQRT(A) (m 1/2): 5153.518066 Right Ascen at Week(rad): -0.1818767168 Argument of Perigee(rad): 0.9371592724 Mean Anom(rad): -1.911500352 Af0(s): -0.0001281246338 Af1(s/s): 3.637979e-12 week: 361 ******** Week 361 almanac for PRN-32 ******** ID: 32 Health: 0 Eccentricity: 0.009370326996 Time of Applicability(s): 319488 Orbital Inclination(rad): 0.9676926053 Rate of Right Ascen(r/s): -7.748894201e-09 SQRT(A) (m 1/2): 5153.688477 Right Ascen at Week(rad): -1.262069586 Argument of Perigee(rad): -1.99530716 Mean Anom(rad): 2.680114234 Af0(s): -4.220576172e-05 Af1(s/s): 1.818989e-11 week: 361